Weather in Afanasyevka

Russia / Kursk Oblast     51°35′30″N   36°48′47″E
temp.,
°C
wind,
m/s
gust,
m/s
humid.,
%
clouds,
%
prec.,
mm/h
press.,
hPa
HPBL,
m
2 march, tue
tue200:00−1w51086100 0.0 1026558
03:00−1wsw61289100 0.0 1024443
06:00−1wsw71489100 0.0 1021623
09:000w81394100 0.0 1019684
12:00+1w61295100 0.0 1017698
15:00+2w71294100 0.0 1015713
18:00+1wnw61297100 0.1 1013551
21:00+1nw61298100 2.1 1014599
3 march, wed
wed300:000nnw6138599 0.7 1014686
03:00−1nnw5128961 0.7 1016557
06:00−1nnw6118899 0.2 1018859
09:00−1nnw71184100 0.3 10201100
12:000nnw7107348 0.1 10211270
15:000nw597459 0.1 1022877
18:00−1w410790 0.0 1021327
21:00−1w512870 0.0 1022394
4 march, thu
thu400:00−2w511900 0.0 1021322
03:00−2wsw49926 0.0 1020264
06:00−2wsw5119124 0.0 1018289
09:00−1wsw6138112 0.0 1016495
12:00+2sw813660 0.0 1013722
15:00+4sw815620 0.0 1010842
18:00+3sw716810 0.0 1007658
21:00+3sw7178318 0.0 1007591
5 march, fri
fri500:00+3wsw61291100 0.1 1006455
03:00+2sw499499 0.1 1006261
06:00+1wsw4109390 0.0 1006355
09:00+2wsw498890 0.0 1007518
12:00+1ssw2699100 0.9 1006297
15:00+2sw41198100 4.5 1005546
18:00+2w51198100 2.6 1004493
21:00+1nw3598100 3.4 1005219
6 march, sat
sat600:00−1nnw6990100 0.1 1007497
03:00−2nnw6984100 0.1 1010785
06:00−3nnw577996 0.1 1012635
09:00−4nnw577048 0.1 1014754
12:00−2nw45520 0.0 10151278
15:00−1nw345145 0.1 10151266
18:00−3nnw2278100 0.4 1015374
21:00−3nnw4769100 1.6 10161150